Location: *
(45.9000°S, 178.1500°W)
Time: 12:24:44
(UTC+00:00)

Daily predictions for brighter satellites

Satellite Brightness Start Highest point End
(mag) Time Altitude Azimuth Time Altitude Azimuth Time Altitude Azimuth
CZ-4C R/B 4.3 15:35:02 24° SSE 15:35:02 24° SSE 15:37:32 10° SSE
Cosmos 1980 Rocket 4.5 15:32:43 18° ENE 15:33:58 19° E 15:37:49 10° ESE
Cosmos 1697 Rocket 4.0 16:02:54 36° SE 16:02:54 36° SE 16:06:20 10° SSE
USA 234 4.0 15:56:41 10° E 16:02:47 42° SSE 16:02:51 42° SSE
Lacrosse 5 rocket 4.3 16:16:13 10° SE 16:16:13 10° SE 16:16:18 10° SE
SJ 16-02 3.8 16:30:57 15° NNE 16:30:57 15° NNE 16:31:45 10° NNE
NOAA 6 4.4 16:26:17 10° NNE 16:30:45 61° ENE 16:30:45 61° ENE
Cosmos 2360 4.3 16:33:54 76° ENE 16:33:55 76° ENE 16:39:41 10° SSE
Meteor 1-21 4.2 16:35:57 79° SE 16:35:57 79° SE 16:41:26 10° SSE
ATLAS CENTAUR R/B 4.3 16:35:12 12° SSE 16:36:00 12° SSE 16:37:51 10° SE
MOS 1-B 4.4 16:30:49 10° NNE 16:36:01 72° N 16:36:01 72° N
Cosmos 1726 3.8 16:43:50 32° ENE 16:43:50 32° ENE 16:46:22 10° NE
NOSS 2-3 (E) 4.3 16:48:22 60° SW 16:49:41 88° SE 16:55:09 10° NE
CZ-4B DEB 4.5 16:45:29 10° N 16:49:50 53° NNW 16:49:50 53° NNW
Cosmos 2263 Rocket 3.1 16:49:22 25° S 16:52:30 48° ESE 16:58:01 10° NE
Envisat 3.4 16:51:56 10° NNE 16:56:59 63° ESE 17:01:08 16° S
Cosmos 1461 3.2 17:03:00 58° ENE 17:03:00 58° ENE 17:06:13 10° NE
Cosmos 858 Rocket 4.4 17:03:38 55° SSW 17:04:50 86° WNW 17:10:06 10° NNE
NOSS 3-1 (C) 3.6 17:06:25 45° NW 17:06:25 45° NW 17:11:08 10° N
ATLAS 5 CENTAUR R/B 4.5 17:01:44 10° N 17:07:52 31° ENE 17:13:40 10° SE
Meteor 2-10 3.8 17:06:37 34° SSW 17:08:59 83° W 17:14:06 10° N
Cosmos 990 Rocket 4.2 17:10:27 52° NW 17:10:27 52° NW 17:15:08 10° N
USA 267 3.3 17:03:29 10° SE 17:10:08 80° NE 17:14:36 23° NW
NOSS 2-3 (D) 4.3 17:10:05 43° SW 17:12:20 72° WNW 17:17:43 10° NNE
Atlas Centaur 2 4.4 17:09:41 18° NW 17:13:36 26° N 17:19:50 10° NE
Okean O Rocket 1.5 17:09:47 10° N 17:14:17 72° WNW 17:14:45 65° WSW
Cosmos 1980 Rocket 2.1 17:14:37 31° NW 17:17:21 70° WSW 17:23:01 10° SSE
Cosmos 1763 Rocket 3.4 17:15:53 41° NW 17:17:35 63° WSW 17:22:52 10° SSE
Cosmos 2195 Rocket 4.4 17:11:27 10° NNW 17:17:46 66° WSW 17:24:11 10° S
CORIOLIS 4.2 17:14:03 10° NNE 17:19:30 79° ESE 17:24:59 10° SSW
Cosmos 2369 4.0 17:20:46 42° WSW 17:20:50 42° SW 17:26:18 10° SSE
CZ-4C R/B 4.0 17:20:13 21° SSW 17:20:52 21° SSW 17:25:41 10° SSE
ARGOS Delta rocket 4.4 17:17:11 10° NNE 17:22:05 59° ESE 17:26:46 10° S
USA 229 DEB 3.9 17:23:20 38° W 17:24:54 44° WNW 17:30:59 10° N
USA 229 3.9 17:23:25 38° W 17:25:02 44° WNW 17:31:06 10° N
Cosmos 1898 Rocket 3.9 17:26:06 42° W 17:26:18 42° WNW 17:31:19 10° N
Cosmos 468 Rocket 4.3 17:30:50 40° W 17:31:38 43° WSW 17:36:39 10° S
Feng Yun 1-1 Rocket 4.4 17:26:37 10° NNE 17:32:06 75° ESE 17:37:48 10° SSW
KORONAS-FOTON 4.1 17:31:45 10° N 17:35:32 67° E 17:39:25 10° SSE
Cosmos 2026 Rocket 4.0 17:30:56 10° NNW 17:36:57 55° WSW 17:43:09 10° S
NOSS 3-1 (A) 3.6 17:34:58 33° WSW 17:37:02 45° WNW 17:42:12 10° N
Aureole 3 Rocket 2.9 17:36:45 43° SW 17:37:40 55° W 17:42:16 10° N
Cosmos 1939 Rocket 4.4 17:36:29 10° NE 17:40:15 37° ESE 17:44:07 10° S
Cosmos 1570 Rocket 4.0 17:35:00 10° NNW 17:40:21 70° WSW 17:45:48 10° SSE
Cosmos 540 Rocket 3.4 17:35:18 10° NNW 17:40:30 77° WSW 17:45:47 10° SSE
Cosmos 2278 4.0 17:38:07 28° WNW 17:40:33 42° SW 17:46:00 10° SSE
SMAP 3.2 17:37:33 10° N 17:42:08 53° W 17:45:30 18° SSW
SL-16 R/B 2.8 17:36:36 10° N 17:42:10 60° ENE 17:47:49 10° SSE
Cosmos 1689 Rocket 1.9 17:40:14 10° S 17:43:18 73° WSW 17:46:20 10° NNW
CZ-4 R/B 3.1 17:39:40 10° NE 17:43:32 35° ESE 17:47:28 10° S
FengYun 1-2 T 4.3 17:38:51 10° NNE 17:44:27 84° ESE 17:50:11 10° SSW
Cosmos 1697 Rocket 3.6 17:44:41 27° WSW 17:45:05 27° SW 17:49:56 10° S
USA 234 3.3 17:38:47 10° NE 17:45:23 87° SE 17:50:12 20° SW
Cosmos 1626 3.9 17:42:11 10° NNE 17:45:37 34° E 17:49:06 10° SSE
Cosmos 841 Rocket 3.5 17:41:20 10° NNW 17:46:36 66° WSW 17:51:56 10° SSE
Okean-O 3.4 17:44:44 10° NNE 17:49:06 54° ESE 17:53:31 10° S
Cosmos 2228 3.2 17:45:07 10° S 17:49:29 73° E 17:53:46 10° NNE
Cosmos 372 Rocket 3.9 17:45:25 15° SSW 17:49:46 76° WNW 17:54:52 10° NNE
CZ-4B R/B 3.8 17:45:25 10° NNW 17:50:32 36° W 17:54:39 16° SW
Cosmos 1953 2.9 17:50:07 34° WSW 17:50:37 35° W 17:54:18 10° NNW
Orbus 7S? 3.7 17:49:36 14° NW 17:52:10 68° NE 17:58:01 10° SE
Lacrosse 5 rocket 3.0 17:51:51 18° SSW 17:52:30 18° S 17:55:26 10° SE
Cosmos 1908 3.1 17:52:24 12° SSW 17:56:03 67° W 17:59:52 10° N
YAOGAN 6 3.1 17:52:52 10° NNW 17:56:12 36° W 17:57:04 31° WSW
Cosmos 2150 Rocket 4.1 17:51:23 10° SSW 17:56:53 88° ESE 18:02:13 10° NNE
ATLAS 2AS CENTAUR R/B 4.4 17:52:15 10° SSW 17:56:54 20° SSE 18:01:45 10° ESE
Cosmos 1125 Rocket 4.1 17:52:07 10° SSW 17:57:23 59° ESE 18:02:34 10° NE
Cosmos 1937 Rocket 4.2 17:55:50 25° WSW 17:57:33 30° W 18:02:03 10° NNW
Cosmos 1025 Rocket 4.1 18:00:15 23° SW 18:00:15 23° SW 18:03:03 10° SSW
Cosmos 1300 3.9 17:57:27 10° S 18:01:12 43° ESE 18:04:53 10° NNE
Meteor 1-24 Rocket 4.1 18:01:51 10° N 18:07:10 63° E 18:12:29 10° SSE
ASTEX 1 3.4 18:02:30 10° N 18:07:22 62° W 18:12:20 10° SSW
Cosmos 1818 4.0 18:03:22 10° NNW 18:08:43 67° ENE 18:14:07 10° SE
COSMO-SKYMED 1 2.6 18:04:17 10° SSE 18:08:44 86° ENE 18:13:08 10° NNW
Cosmos 1892 Rocket 3.9 18:05:17 10° N 18:09:45 72° E 18:14:15 10° SSE
ADEOS Rocket 2.7 18:05:30 10° S 18:11:02 69° WSW 18:16:39 10° NNW
Cosmos 1655 Rocket 4.0 18:07:27 10° NNW 18:13:40 66° W 18:19:58 10° S
BREEZE-M DEB (TANK) 3.9 18:12:43 19° W 18:15:32 55° NNW 18:27:45 10° NE
ATLAS CENTAUR R/B 2.9 18:11:44 10° SSW 18:16:16 38° SE 18:20:49 10° ENE
Cosmos 1726 3.9 18:18:23 15° W 18:18:23 15° W 18:20:01 10° NW
YAOGAN 1 2.9 18:15:22 10° NNE 18:19:42 69° ESE 18:24:07 10° S
IRS-1C Rocket 4.3 18:14:37 10° N 18:19:44 50° W 18:24:56 10° SSW
Cosmos 2266 Rocket 4.0 18:14:15 10° NNW 18:20:35 77° W 18:26:52 10° S
Cosmos 1356 Rocket 3.4 18:17:29 10° S 18:21:42 89° WNW 18:25:55 10° N
Cosmos 2322 Rocket 2.2 18:16:28 10° NNW 18:22:13 84° WSW 18:28:01 10° SSE
Meteor 2-5 Rocket 3.6 18:16:47 10° NNW 18:22:23 75° WSW 18:28:01 10° S
Cosmos 1674 3.5 18:21:36 10° NW 18:24:55 29° WSW 18:28:20 10° SSW
Aureole 3 4.0 18:23:39 10° SSW 18:28:00 38° W 18:31:30 10° NNW
Cosmos 2058 Rocket 3.1 18:23:58 10° S 18:28:29 86° W 18:32:57 10° N
Cosmos 2292 Rocket 4.3 18:22:13 10° NNW 18:28:54 60° W 18:33:57 10° S
Helios 1A Rocket 3.8 18:25:38 10° NNW 18:29:16 30° W 18:32:59 10° SW
Cosmos 2315 Rocket 4.0 18:29:42 10° S 18:36:02 78° W 18:42:15 10° N
Cosmos 2263 Rocket 3.1 18:31:17 10° SW 18:36:12 30° WNW 18:41:03 10° NNW
Cosmos 1606 Rocket 4.2 18:32:20 10° SSW 18:36:22 35° W 18:40:20 10° NNW
Envisat 4.4 18:32:57 10° NW 18:36:27 18° W 18:39:59 10° SW
ARGOS 4.5 18:33:39 10° NE 18:38:39 40° ESE 18:43:43 10° S
USA 116 3.3 18:38:16 10° SSE 18:41:29 80° ENE 18:44:48 10° N
Cosmos 1437 4.2 18:39:49 10° WNW 18:41:49 16° WSW 18:43:52 10° SSW
Cosmos 2219 Rocket 4.4 18:39:54 10° NNE 18:44:48 31° ENE 18:49:45 10° SE
ATLAS 5 CENTAUR R/B 2.7 18:45:15 10° NW 18:52:24 69° SW 18:58:55 10° SE
Cosmos 2237 4.2 18:47:05 10° NNW 18:52:48 84° WSW 18:58:34 10° SSE
USA 267 3.7 18:46:38 10° SE 18:52:53 46° SSW 18:59:06 10° W
Cosmos 2360 Rocket 2.3 18:47:34 10° NNW 18:53:15 87° WSW 18:58:59 10° SSE
H-2A R/B 2.4 18:49:25 10° NNE 18:54:20 66° ESE 18:59:23 10° S
Cosmos 1844 3.9 18:50:11 10° SSW 18:55:53 77° ESE 19:01:35 10° NNE
